Time,TemperatureF,DewpointF,PressureIn,WindDirection,WindDirectionDegrees,WindSpeedMPH,WindSpeedGustMPH,Humidity,HourlyPrecipIn,Conditions,Clouds,dailyrainin,SoftwareType,DateUTC
2013-03-05 00:00:00,62.9,52.2,29.50,SSW,198,11.0,11.0,68,0.00,,,0.00,Wunderground v.1.15,2013-03-05 06:00:00,
2013-03-05 00:05:00,62.8,52.5,29.50,South,183,10.0,28.0,69,0.00,,,0.00,Wunderground v.1.15,2013-03-05 06:05:00,
2013-03-05 00:10:00,62.9,52.6,29.50,South,175,10.0,10.0,69,0.00,,,0.00,Wunderground v.1.15,2013-03-05 06:10:00,
2013-03-05 00:20:00,62.8,52.9,29.50,SW,223,10.0,28.0,70,0.00,,,0.00,Wunderground v.1.15,2013-03-05 06:20:00,
2013-03-05 00:30:00,62.7,53.2,29.50,SSW,196,10.0,10.0,71,0.00,,,0.00,Wunderground v.1.15,2013-03-05 06:30:00,
2013-03-05 00:35:00,62.7,53.2,29.50,SSW,202,10.0,28.0,71,0.00,,,0.00,Wunderground v.1.15,2013-03-05 06:35:00,
2013-03-05 00:40:00,62.8,53.3,29.50,SSW,212,10.0,28.0,71,0.00,,,0.00,Wunderground v.1.15,2013-03-05 06:40:00,
2013-03-05 00:45:00,62.8,53.6,29.50,SSW,192,9.0,28.0,72,0.00,,,0.00,Wunderground v.1.15,2013-03-05 06:45:00,
2013-03-05 00:55:00,62.9,53.7,29.50,SSW,205,10.0,28.0,72,0.00,,,0.00,Wunderground v.1.15,2013-03-05 06:55:00,
2013-03-05 01:00:00,63.0,53.8,29.50,SW,215,9.0,28.0,72,0.00,,,0.00,Wunderground v.1.15,2013-03-05 07:00:00,
2013-03-05 01:05:00,63.1,53.9,29.50,SSW,207,10.0,28.0,72,0.00,,,0.00,Wunderground v.1.15,2013-03-05 07:05:00,
2013-03-05 01:10:00,63.2,54.4,29.51,SSW,212,10.0,28.0,73,0.00,,,0.00,Wunderground v.1.15,2013-03-05 07:10:00,
2013-03-05 01:15:00,63.2,54.4,29.51,SSW,194,11.0,28.0,73,0.00,,,0.00,Wunderground v.1.15,2013-03-05 07:15:00,
2013-03-05 01:25:00,63.1,54.7,29.50,SSW,207,10.0,28.0,74,0.00,,,0.00,Wunderground v.1.15,2013-03-05 07:25:00,
2013-03-05 01:35:00,63.0,54.6,29.50,SW,221,10.0,28.0,74,0.00,,,0.00,Wunderground v.1.15,2013-03-05 07:35:00,
2013-03-05 01:40:00,63.1,55.0,29.51,SSW,207,10.0,28.0,75,0.00,,,0.00,Wunderground v.1.15,2013-03-05 07:40:00,
2013-03-05 01:45:00,63.1,55.0,29.51,SW,229,11.0,28.0,75,0.00,,,0.00,Wunderground v.1.15,2013-03-05 07:45:00,
2013-03-05 01:50:00,63.0,54.9,29.51,SW,216,9.0,9.0,75,0.00,,,0.00,Wunderground v.1.15,2013-03-05 07:50:00,
2013-03-05 02:00:00,62.9,55.2,29.51,SW,222,10.0,10.0,76,0.00,,,0.00,Wunderground v.1.15,2013-03-05 08:00:00,
2013-03-05 02:05:00,63.1,55.4,29.51,SSW,199,10.0,28.0,76,0.00,,,0.00,Wunderground v.1.15,2013-03-05 08:05:00,
2013-03-05 02:10:00,63.2,55.5,29.51,SSW,200,11.0,11.0,76,0.00,,,0.00,Wunderground v.1.15,2013-03-05 08:10:00,
2013-03-05 02:15:00,63.3,55.6,29.51,SW,233,11.0,13.0,76,0.00,,,0.00,Wunderground v.1.15,2013-03-05 08:15:00,
2013-03-05 02:20:00,63.4,56.1,29.51,SW,229,11.0,28.0,77,0.00,,,0.00,Wunderground v.1.15,2013-03-05 08:20:00,
2013-03-05 02:30:00,63.3,56.0,29.51,SW,219,10.0,10.0,77,0.00,,,0.00,Wunderground v.1.15,2013-03-05 08:30:00,
2013-03-05 02:40:00,63.1,55.8,29.50,SSW,202,9.0,28.0,77,0.00,,,0.00,Wunderground v.1.15,2013-03-05 08:40:00,
2013-03-05 02:45:00,63.0,55.7,29.50,SW,234,9.0,28.0,77,0.00,,,0.00,Wunderground v.1.15,2013-03-05 08:45:00,
2013-03-05 02:50:00,63.0,56.0,29.50,SSW,192,10.0,28.0,78,0.00,,,0.00,Wunderground v.1.15,2013-03-05 08:50:00,
2013-03-05 02:55:00,63.0,56.0,29.51,South,179,11.0,28.0,78,0.00,,,0.00,Wunderground v.1.15,2013-03-05 08:55:00,
2013-03-05 03:00:00,62.9,55.9,29.51,SW,228,11.0,11.0,78,0.00,,,0.00,Wunderground v.1.15,2013-03-05 09:00:00,
2013-03-05 03:10:00,62.8,56.2,29.51,SSW,209,9.0,9.0,79,0.00,,,0.00,Wunderground v.1.15,2013-03-05 09:10:00,
2013-03-05 03:15:00,62.7,56.1,29.51,South,187,11.0,11.0,79,0.00,,,0.00,Wunderground v.1.15,2013-03-05 09:15:00,
2013-03-05 03:20:00,62.6,56.0,29.51,SSW,200,10.0,28.0,79,0.00,,,0.00,Wunderground v.1.15,2013-03-05 09:20:00,
2013-03-05 03:25:00,62.6,56.0,29.51,SW,221,10.0,28.0,79,0.00,,,0.00,Wunderground v.1.15,2013-03-05 09:25:00,
2013-03-05 03:35:00,62.4,56.1,29.51,SW,216,8.0,28.0,80,0.00,,,0.00,Wunderground v.1.15,2013-03-05 09:35:00,
2013-03-05 03:45:00,62.3,56.4,29.51,SW,225,8.0,11.0,81,0.00,,,0.00,Wunderground v.1.15,2013-03-05 09:45:00,
2013-03-05 03:50:00,62.2,56.3,29.51,SW,233,8.0,8.0,81,0.00,,,0.00,Wunderground v.1.15,2013-03-05 09:50:00,
2013-03-05 03:55:00,62.2,56.3,29.50,SW,225,8.0,28.0,81,0.00,,,0.00,Wunderground v.1.15,2013-03-05 09:55:00,
2013-03-05 04:00:00,61.9,56.3,29.50,SW,219,8.0,8.0,82,0.00,,,0.00,Wunderground v.1.15,2013-03-05 10:00:00,
2013-03-05 04:05:00,61.6,56.4,29.50,SW,216,8.0,9.0,83,0.00,,,0.00,Wunderground v.1.15,2013-03-05 10:05:00,
2013-03-05 04:10:00,61.5,56.6,29.51,SSW,211,8.0,28.0,84,0.00,,,0.00,Wunderground v.1.15,2013-03-05 10:10:00,
2013-03-05 04:15:00,61.5,56.6,29.51,SW,219,8.0,28.0,84,0.00,,,0.00,Wunderground v.1.15,2013-03-05 10:15:00,
2013-03-05 04:20:00,61.5,56.6,29.51,SSE,168,8.0,28.0,84,0.00,,,0.00,Wunderground v.1.15,2013-03-05 10:20:00,
2013-03-05 04:30:00,61.4,56.5,29.51,SSW,199,7.0,28.0,84,0.00,,,0.00,Wunderground v.1.15,2013-03-05 10:30:00,
2013-03-05 04:35:00,61.5,56.6,29.51,WSW,237,9.0,28.0,84,0.00,,,0.00,Wunderground v.1.15,2013-03-05 10:35:00,
2013-03-05 04:40:00,61.4,56.5,29.51,SW,223,8.0,28.0,84,0.00,,,0.00,Wunderground v.1.15,2013-03-05 10:40:00,
2013-03-05 04:50:00,61.3,56.4,29.51,SSW,192,8.0,8.0,84,0.00,,,0.00,Wunderground v.1.15,2013-03-05 10:50:00,
2013-03-05 04:55:00,61.2,56.7,29.51,SSW,203,7.0,28.0,85,0.00,,,0.00,Wunderground v.1.15,2013-03-05 10:55:00,
2013-03-05 05:00:00,61.2,56.7,29.51,SW,217,7.0,28.0,85,0.00,,,0.00,Wunderground v.1.15,2013-03-05 11:00:00,
2013-03-05 05:05:00,61.2,56.7,29.51,WSW,253,7.0,28.0,85,0.00,,,0.00,Wunderground v.1.15,2013-03-05 11:05:00,
2013-03-05 05:10:00,61.2,56.7,29.52,SW,220,8.0,28.0,85,0.00,,,0.00,Wunderground v.1.15,2013-03-05 11:10:00,
2013-03-05 05:15:00,61.3,56.8,29.52,SSW,202,8.0,28.0,85,0.00,,,0.00,Wunderground v.1.15,2013-03-05 11:15:00,
2013-03-05 05:25:00,61.3,56.8,29.52,SW,218,9.0,13.0,85,0.00,,,0.00,Wunderground v.1.15,2013-03-05 11:25:00,
2013-03-05 05:35:00,61.3,56.8,29.52,SW,215,9.0,28.0,85,0.00,,,0.00,Wunderground v.1.15,2013-03-05 11:35:00,
2013-03-05 05:40:00,61.3,56.8,29.52,SW,224,9.0,28.0,85,0.00,,,0.00,Wunderground v.1.15,2013-03-05 11:40:00,
2013-03-05 05:45:00,61.3,57.1,29.52,SW,218,9.0,28.0,86,0.00,,,0.00,Wunderground v.1.15,2013-03-05 11:45:00,
2013-03-05 05:50:00,61.3,56.8,29.52,SW,227,9.0,9.0,85,0.00,,,0.00,Wunderground v.1.15,2013-03-05 11:50:00,
2013-03-05 06:00:00,61.3,57.1,29.52,WSW,252,9.0,28.0,86,0.00,,,0.00,Wunderground v.1.15,2013-03-05 12:00:00,
2013-03-05 06:05:00,61.4,57.2,29.52,SW,221,10.0,28.0,86,0.00,,,0.00,Wunderground v.1.15,2013-03-05 12:05:00,
2013-03-05 06:10:00,61.3,57.1,29.52,SSW,210,10.0,10.0,86,0.00,,,0.00,Wunderground v.1.15,2013-03-05 12:10:00,
2013-03-05 06:15:00,61.1,57.2,29.52,SW,230,9.0,28.0,87,0.00,,,0.00,Wunderground v.1.15,2013-03-05 12:15:00,
2013-03-05 06:20:00,60.8,56.9,29.52,WSW,237,8.0,28.0,87,0.00,,,0.00,Wunderground v.1.15,2013-03-05 12:20:00,
2013-03-05 06:30:00,60.2,56.9,29.52,SSW,209,9.0,9.0,89,0.00,,,0.00,Wunderground v.1.15,2013-03-05 12:30:00,
2013-03-05 06:40:00,59.8,56.6,29.51,South,185,10.0,10.0,89,0.00,,,0.00,Wunderground v.1.15,2013-03-05 12:40:00,
2013-03-05 06:45:00,59.7,56.8,29.51,SW,234,8.0,28.0,90,0.00,,,0.00,Wunderground v.1.15,2013-03-05 12:45:00,
2013-03-05 06:50:00,59.5,56.6,29.51,WSW,246,8.0,28.0,90,0.00,,,0.00,Wunderground v.1.15,2013-03-05 12:50:00,
2013-03-05 06:55:00,59.3,56.7,29.53,WSW,250,10.0,28.0,91,0.00,,,0.01,Wunderground v.1.15,2013-03-05 12:55:00,
2013-03-05 07:05:00,58.6,56.3,29.53,SW,234,6.0,28.0,92,0.50,,,0.09,Wunderground v.1.15,2013-03-05 13:05:00,
2013-03-05 07:10:00,58.5,56.5,29.53,SW,227,6.0,28.0,93,0.27,,,0.12,Wunderground v.1.15,2013-03-05 13:10:00,
2013-03-05 07:15:00,58.3,56.3,29.53,WSW,254,7.0,28.0,93,0.10,,,0.12,Wunderground v.1.15,2013-03-05 13:15:00,
2013-03-05 07:25:00,55.0,52.4,29.58,WNW,288,13.0,28.0,91,0.04,,,0.12,Wunderground v.1.15,2013-03-05 13:25:00,
2013-03-05 07:30:00,52.7,50.1,29.58,West,266,17.0,17.0,91,0.00,,,0.12,Wunderground v.1.15,2013-03-05 13:30:00,
2013-03-05 07:40:00,50.9,48.7,29.58,NW,318,13.0,13.0,92,0.00,,,0.13,Wunderground v.1.15,2013-03-05 13:40:00,
2013-03-05 07:45:00,50.6,48.4,29.58,West,263,12.0,15.0,92,0.00,,,0.13,Wunderground v.1.15,2013-03-05 13:45:00,
2013-03-05 07:50:00,50.4,48.5,29.58,NW,310,10.0,28.0,93,0.00,,,0.13,Wunderground v.1.15,2013-03-05 13:50:00,
2013-03-05 07:55:00,50.2,48.3,29.58,WNW,287,9.0,28.0,93,0.21,,,0.15,Wunderground v.1.15,2013-03-05 13:55:00,
2013-03-05 08:00:00,50.0,48.1,29.58,NNW,339,11.0,28.0,93,0.24,,,0.17,Wunderground v.1.15,2013-03-05 14:00:00,
2013-03-05 08:05:00,49.7,47.8,29.58,NW,315,11.0,28.0,93,0.11,,,0.18,Wunderground v.1.15,2013-03-05 14:05:00,
2013-03-05 08:15:00,49.0,47.1,29.60,NNW,329,12.0,28.0,93,0.05,,,0.18,Wunderground v.1.15,2013-03-05 14:15:00,
2013-03-05 08:20:00,48.9,47.0,29.60,NW,318,9.0,28.0,93,0.04,,,0.18,Wunderground v.1.15,2013-03-05 14:20:00,
2013-03-05 08:30:00,48.2,46.3,29.61,West,279,12.0,28.0,93,0.00,,,0.19,Wunderground v.1.15,2013-03-05 14:30:00,
2013-03-05 08:35:00,46.6,44.4,29.61,WNW,289,16.0,28.0,92,0.24,,,0.21,Wunderground v.1.15,2013-03-05 14:35:00,
2013-03-05 08:40:00,45.5,43.3,29.62,WNW,293,16.0,16.0,92,0.23,,,0.24,Wunderground v.1.15,2013-03-05 14:40:00,
2013-03-05 08:50:00,44.3,42.1,29.62,WNW,296,11.0,28.0,92,0.17,,,0.27,Wunderground v.1.15,2013-03-05 14:50:00,
2013-03-05 08:55:00,43.7,41.5,29.65,West,261,13.0,28.0,92,0.07,,,0.27,Wunderground v.1.15,2013-03-05 14:55:00,
2013-03-05 09:00:00,43.3,41.1,29.65,NW,306,15.0,28.0,92,0.04,,,0.27,Wunderground v.1.15,2013-03-05 15:00:00,
2013-03-05 09:05:00,43.1,41.2,29.65,NNW,340,15.0,28.0,93,0.00,,,0.28,Wunderground v.1.15,2013-03-05 15:05:00,
2013-03-05 09:10:00,43.0,41.1,29.65,West,269,12.0,28.0,93,0.14,,,0.29,Wunderground v.1.15,2013-03-05 15:10:00,
2013-03-05 09:20:00,42.7,40.8,29.65,WNW,299,12.0,12.0,93,0.17,,,0.31,Wunderground v.1.15,2013-03-05 15:20:00,
2013-03-05 09:25:00,42.6,40.7,29.67,WSW,244,11.0,28.0,93,0.15,,,0.32,Wunderground v.1.15,2013-03-05 15:25:00,
2013-03-05 09:35:00,42.6,40.7,29.67,WNW,303,10.0,28.0,93,0.11,,,0.33,Wunderground v.1.15,2013-03-05 15:35:00,
2013-03-05 09:40:00,42.5,40.6,29.69,West,277,10.0,28.0,93,0.09,,,0.34,Wunderground v.1.15,2013-03-05 15:40:00,
2013-03-05 09:45:00,42.3,40.4,29.69,West,273,13.0,28.0,93,0.06,,,0.34,Wunderground v.1.15,2013-03-05 15:45:00,
2013-03-05 09:55:00,41.8,39.6,29.71,West,280,15.0,28.0,92,0.06,,,0.35,Wunderground v.1.15,2013-03-05 15:55:00,
2013-03-05 10:00:00,41.5,39.3,29.71,West,277,15.0,28.0,92,0.18,,,0.37,Wunderground v.1.15,2013-03-05 16:00:00,
2013-03-05 10:05:00,41.4,39.3,29.71,West,279,14.0,28.0,92,0.12,,,0.38,Wunderground v.1.15,2013-03-05 16:05:00,
2013-03-05 10:10:00,41.3,39.2,29.70,WNW,301,14.0,28.0,92,0.15,,,0.39,Wunderground v.1.15,2013-03-05 16:10:00,
2013-03-05 10:15:00,41.3,39.2,29.70,WNW,293,16.0,28.0,92,0.08,,,0.39,Wunderground v.1.15,2013-03-05 16:15:00,
2013-03-05 10:20:00,41.4,39.0,29.70,WNW,291,16.0,16.0,91,0.05,,,0.39,Wunderground v.1.15,2013-03-05 16:20:00,
2013-03-05 10:30:00,41.3,38.6,29.70,NW,310,12.0,12.0,90,0.04,,,0.40,Wunderground v.1.15,2013-03-05 16:30:00,
2013-03-05 10:40:00,41.2,38.5,29.70,NNW,338,11.0,28.0,90,0.00,,,0.40,Wunderground v.1.15,2013-03-05 16:40:00,
2013-03-05 10:45:00,41.3,38.3,29.70,NNW,348,11.0,28.0,89,0.00,,,0.40,Wunderground v.1.15,2013-03-05 16:45:00,
2013-03-05 10:50:00,41.4,38.4,29.70,NW,309,11.0,11.0,89,0.00,,,0.40,Wunderground v.1.15,2013-03-05 16:50:00,
2013-03-05 10:55:00,41.7,38.7,29.72,NNE,22,9.0,28.0,89,0.00,,,0.40,Wunderground v.1.15,2013-03-05 16:55:00,
2013-03-05 11:05:00,42.3,38.7,29.72,NW,304,13.0,16.0,87,0.00,,,0.40,Wunderground v.1.15,2013-03-05 17:05:00,
2013-03-05 11:10:00,42.7,38.8,29.73,West,277,14.0,14.0,86,0.00,,,0.40,Wunderground v.1.15,2013-03-05 17:10:00,
2013-03-05 11:15:00,43.5,39.6,29.73,NNW,341,13.0,28.0,86,0.00,,,0.40,Wunderground v.1.15,2013-03-05 17:15:00,
2013-03-05 11:20:00,44.0,39.8,29.73,NW,316,12.0,28.0,85,0.00,,,0.40,Wunderground v.1.15,2013-03-05 17:20:00,
2013-03-05 11:25:00,44.0,38.9,29.75,WNW,291,14.0,28.0,82,0.00,,,0.40,Wunderground v.1.15,2013-03-05 17:25:00,
2013-03-05 11:35:00,43.8,38.0,29.75,West,260,13.0,28.0,80,0.00,,,0.40,Wunderground v.1.15,2013-03-05 17:35:00,
2013-03-05 11:40:00,43.9,37.8,29.75,WNW,284,14.0,14.0,79,0.00,,,0.40,Wunderground v.1.15,2013-03-05 17:40:00,
2013-03-05 11:50:00,43.9,37.8,29.75,West,263,11.0,11.0,79,0.00,,,0.40,Wunderground v.1.15,2013-03-05 17:50:00,
2013-03-05 11:55:00,44.0,38.2,29.75,WNW,300,9.0,16.0,80,0.00,,,0.40,Wunderground v.1.15,2013-03-05 17:55:00,
2013-03-05 12:00:00,44.2,38.1,29.75,WNW,294,10.0,28.0,79,0.00,,,0.40,Wunderground v.1.15,2013-03-05 18:00:00,
2013-03-05 12:10:00,44.9,38.5,29.75,WNW,284,13.0,28.0,78,0.00,,,0.40,Wunderground v.1.15,2013-03-05 18:10:00,
2013-03-05 12:15:00,45.0,37.9,29.75,West,280,12.0,28.0,76,0.00,,,0.40,Wunderground v.1.15,2013-03-05 18:15:00,
2013-03-05 12:20:00,44.9,37.8,29.75,NW,319,10.0,10.0,76,0.00,,,0.40,Wunderground v.1.15,2013-03-05 18:20:00,
2013-03-05 12:25:00,44.9,37.8,29.76,NNE,13,8.0,28.0,76,0.00,,,0.40,Wunderground v.1.15,2013-03-05 18:25:00,
2013-03-05 12:35:00,44.8,37.4,29.76,WNW,284,9.0,28.0,75,0.00,,,0.40,Wunderground v.1.15,2013-03-05 18:35:00,
2013-03-05 12:45:00,45.5,38.0,29.75,WNW,300,13.0,14.0,75,0.00,,,0.40,Wunderground v.1.15,2013-03-05 18:45:00,
2013-03-05 12:50:00,46.1,37.2,29.75,WNW,300,12.0,12.0,71,0.00,,,0.40,Wunderground v.1.15,2013-03-05 18:50:00,
2013-03-05 12:55:00,45.8,36.6,29.76,NW,305,12.0,28.0,70,0.00,,,0.40,Wunderground v.1.15,2013-03-05 18:55:00,
2013-03-05 13:00:00,45.6,36.4,29.76,WNW,288,14.0,14.0,70,0.00,,,0.40,Wunderground v.1.15,2013-03-05 19:00:00,
2013-03-05 13:05:00,46.0,37.1,29.76,West,278,12.0,28.0,71,0.00,,,0.40,Wunderground v.1.15,2013-03-05 19:05:00,
2013-03-05 13:10:00,46.4,36.8,29.75,WNW,293,11.0,28.0,69,0.00,,,0.40,Wunderground v.1.15,2013-03-05 19:10:00,
2013-03-05 13:15:00,46.4,36.8,29.75,NNW,343,10.0,28.0,69,0.00,,,0.40,Wunderground v.1.15,2013-03-05 19:15:00,
2013-03-05 13:20:00,46.3,36.7,29.75,NNW,337,8.0,28.0,69,0.00,,,0.40,Wunderground v.1.15,2013-03-05 19:20:00,
2013-03-05 13:25:00,46.3,37.0,29.76,NNW,346,8.0,28.0,70,0.00,,,0.40,Wunderground v.1.15,2013-03-05 19:25:00,
2013-03-05 13:35:00,46.8,36.0,29.76,WNW,296,13.0,28.0,66,0.00,,,0.40,Wunderground v.1.15,2013-03-05 19:35:00,
2013-03-05 13:40:00,47.0,35.8,29.76,WNW,303,12.0,28.0,65,0.00,,,0.40,Wunderground v.1.15,2013-03-05 19:40:00,
2013-03-05 13:45:00,46.9,35.4,29.76,NNW,340,13.0,28.0,64,0.00,,,0.40,Wunderground v.1.15,2013-03-05 19:45:00,
2013-03-05 13:55:00,47.3,35.3,29.76,NW,310,12.0,28.0,63,0.00,,,0.40,Wunderground v.1.15,2013-03-05 19:55:00,
2013-03-05 14:00:00,47.7,35.7,29.76,WNW,288,12.0,28.0,63,0.00,,,0.40,Wunderground v.1.15,2013-03-05 20:00:00,
2013-03-05 14:05:00,48.0,36.0,29.76,WNW,283,11.0,28.0,63,0.00,,,0.40,Wunderground v.1.15,2013-03-05 20:05:00,
2013-03-05 14:10:00,48.2,35.8,29.77,West,272,11.0,11.0,62,0.00,,,0.40,Wunderground v.1.15,2013-03-05 20:10:00,
2013-03-05 14:15:00,47.8,35.4,29.77,WNW,292,11.0,28.0,62,0.00,,,0.40,Wunderground v.1.15,2013-03-05 20:15:00,
2013-03-05 14:25:00,48.3,35.9,29.77,WNW,289,10.0,11.0,62,0.00,,,0.40,Wunderground v.1.15,2013-03-05 20:25:00,
2013-03-05 14:35:00,49.1,34.9,29.77,WNW,302,12.0,14.0,58,0.00,,,0.40,Wunderground v.1.15,2013-03-05 20:35:00,
2013-03-05 14:40:00,48.5,34.4,29.78,WSW,256,14.0,14.0,58,0.00,,,0.40,Wunderground v.1.15,2013-03-05 20:40:00,
2013-03-05 14:45:00,48.4,34.7,29.78,NW,306,11.0,28.0,59,0.00,,,0.40,Wunderground v.1.15,2013-03-05 20:45:00,
2013-03-05 14:50:00,49.0,34.9,29.78,NNW,346,10.0,28.0,58,0.00,,,0.40,Wunderground v.1.15,2013-03-05 20:50:00,
2013-03-05 15:00:00,49.7,34.6,29.77,WNW,293,12.0,28.0,56,0.00,,,0.40,Wunderground v.1.15,2013-03-05 21:00:00,
2013-03-05 15:05:00,50.0,34.0,29.77,WNW,289,13.0,28.0,54,0.00,,,0.40,Wunderground v.1.15,2013-03-05 21:05:00,
2013-03-05 15:10:00,49.7,33.7,29.78,WNW,284,15.0,15.0,54,0.00,,,0.40,Wunderground v.1.15,2013-03-05 21:10:00,
2013-03-05 15:15:00,50.0,34.5,29.78,WNW,284,14.0,18.0,55,0.00,,,0.40,Wunderground v.1.15,2013-03-05 21:15:00,
2013-03-05 15:20:00,50.5,34.5,29.78,WNW,299,14.0,28.0,54,0.00,,,0.40,Wunderground v.1.15,2013-03-05 21:20:00,
2013-03-05 15:30:00,51.5,35.4,29.78,WNW,293,11.0,11.0,54,0.00,,,0.40,Wunderground v.1.15,2013-03-05 21:30:00,
2013-03-05 15:40:00,51.3,34.3,29.78,WNW,294,13.0,13.0,52,0.00,,,0.40,Wunderground v.1.15,2013-03-05 21:40:00,
2013-03-05 15:45:00,51.5,34.4,29.78,WNW,300,11.0,28.0,52,0.00,,,0.40,Wunderground v.1.15,2013-03-05 21:45:00,
2013-03-05 15:50:00,51.3,34.3,29.78,WNW,287,11.0,11.0,52,0.00,,,0.40,Wunderground v.1.15,2013-03-05 21:50:00,
2013-03-05 15:55:00,50.9,32.9,29.80,WNW,290,13.0,13.0,50,0.00,,,0.40,Wunderground v.1.15,2013-03-05 21:55:00,
2013-03-05 16:00:00,50.6,33.1,29.80,NW,305,15.0,15.0,51,0.00,,,0.40,Wunderground v.1.15,2013-03-05 22:00:00,
2013-03-05 16:05:00,50.7,32.7,29.80,WNW,296,14.0,28.0,50,0.00,,,0.40,Wunderground v.1.15,2013-03-05 22:05:00,
2013-03-05 16:10:00,50.7,32.7,29.80,West,280,12.0,12.0,50,0.00,,,0.40,Wunderground v.1.15,2013-03-05 22:10:00,
2013-03-05 16:15:00,50.6,32.1,29.80,WNW,299,11.0,15.0,49,0.00,,,0.40,Wunderground v.1.15,2013-03-05 22:15:00,
2013-03-05 16:25:00,50.3,31.3,29.80,NNW,344,14.0,28.0,48,0.00,,,0.40,Wunderground v.1.15,2013-03-05 22:25:00,
2013-03-05 16:30:00,50.1,31.2,29.80,WNW,295,13.0,13.0,48,0.00,,,0.40,Wunderground v.1.15,2013-03-05 22:30:00,
2013-03-05 16:35:00,50.1,30.6,29.80,NNW,328,11.0,28.0,47,0.00,,,0.40,Wunderground v.1.15,2013-03-05 22:35:00,
2013-03-05 16:40:00,49.9,28.8,29.81,WNW,286,13.0,28.0,44,0.00,,,0.40,Wunderground v.1.15,2013-03-05 22:40:00,
2013-03-05 16:45:00,49.6,28.0,29.81,WNW,286,15.0,28.0,43,0.00,,,0.40,Wunderground v.1.15,2013-03-05 22:45:00,
2013-03-05 16:50:00,49.4,27.8,29.81,WNW,284,15.0,15.0,43,0.00,,,0.40,Wunderground v.1.15,2013-03-05 22:50:00,
2013-03-05 16:55:00,49.3,27.7,29.82,NNW,330,13.0,28.0,43,0.00,,,0.40,Wunderground v.1.15,2013-03-05 22:55:00,
2013-03-05 17:00:00,49.0,27.5,29.82,NNW,342,12.0,12.0,43,0.00,,,0.40,Wunderground v.1.15,2013-03-05 23:00:00,
2013-03-05 17:05:00,48.8,27.3,29.82,NW,321,13.0,16.0,43,0.00,,,0.40,Wunderground v.1.15,2013-03-05 23:05:00,
2013-03-05 17:10:00,48.5,27.0,29.82,NW,323,14.0,14.0,43,0.00,,,0.40,Wunderground v.1.15,2013-03-05 23:10:00,
2013-03-05 17:15:00,48.5,27.0,29.82,WNW,288,12.0,28.0,43,0.00,,,0.40,Wunderground v.1.15,2013-03-05 23:15:00,
2013-03-05 17:20:00,48.3,27.4,29.82,NW,307,9.0,28.0,44,0.00,,,0.40,Wunderground v.1.15,2013-03-05 23:20:00,
2013-03-05 17:30:00,48.0,27.6,29.83,West,274,11.0,11.0,45,0.00,,,0.40,Wunderground v.1.15,2013-03-05 23:30:00,
2013-03-05 17:35:00,47.8,27.5,29.83,NW,313,10.0,28.0,45,0.00,,,0.40,Wunderground v.1.15,2013-03-05 23:35:00,
2013-03-05 17:40:00,47.6,27.8,29.83,NW,311,8.0,8.0,46,0.00,,,0.40,Wunderground v.1.15,2013-03-05 23:40:00,
2013-03-05 17:50:00,47.0,28.3,29.83,NW,324,8.0,28.0,48,0.00,,,0.40,Wunderground v.1.15,2013-03-05 23:50:00,
2013-03-05 17:55:00,46.8,28.6,29.84,North,350,9.0,28.0,49,0.00,,,0.40,Wunderground v.1.15,2013-03-05 23:55:00,
2013-03-05 18:00:00,46.5,28.3,29.84,WNW,286,8.0,28.0,49,0.00,,,0.40,Wunderground v.1.15,2013-03-06 00:00:00,
2013-03-05 18:05:00,46.4,27.8,29.84,WNW,295,9.0,28.0,48,0.00,,,0.40,Wunderground v.1.15,2013-03-06 00:05:00,
2013-03-05 18:10:00,46.2,27.6,29.84,NW,311,10.0,10.0,48,0.00,,,0.40,Wunderground v.1.15,2013-03-06 00:10:00,
2013-03-05 18:15:00,46.1,28.0,29.84,WNW,292,8.0,28.0,49,0.00,,,0.40,Wunderground v.1.15,2013-03-06 00:15:00,
2013-03-05 18:25:00,45.7,28.1,29.85,WNW,291,7.0,28.0,50,0.00,,,0.40,Wunderground v.1.15,2013-03-06 00:25:00,
2013-03-05 18:35:00,45.4,28.3,29.85,WNW,289,8.0,28.0,51,0.00,,,0.40,Wunderground v.1.15,2013-03-06 00:35:00,
2013-03-05 18:40:00,45.3,28.2,29.85,WNW,290,7.0,28.0,51,0.00,,,0.40,Wunderground v.1.15,2013-03-06 00:40:00,
2013-03-05 18:45:00,45.2,28.1,29.85,WNW,287,7.0,28.0,51,0.00,,,0.40,Wunderground v.1.15,2013-03-06 00:45:00,
2013-03-05 18:50:00,45.0,27.9,29.85,NW,315,7.0,7.0,51,0.00,,,0.40,Wunderground v.1.15,2013-03-06 00:50:00,
2013-03-05 18:55:00,45.0,27.9,29.85,West,268,8.0,8.0,51,0.00,,,0.40,Wunderground v.1.15,2013-03-06 00:55:00,
2013-03-05 19:00:00,44.9,27.8,29.85,WNW,302,8.0,8.0,51,0.00,,,0.40,Wunderground v.1.15,2013-03-06 01:00:00,
2013-03-05 19:05:00,44.8,27.8,29.85,WNW,292,7.0,28.0,51,0.00,,,0.40,Wunderground v.1.15,2013-03-06 01:05:00,
2013-03-05 19:10:00,44.6,27.6,29.85,WNW,292,7.0,7.0,51,0.00,,,0.40,Wunderground v.1.15,2013-03-06 01:10:00,
2013-03-05 19:15:00,44.5,28.0,29.85,NNW,327,7.0,28.0,52,0.00,,,0.40,Wunderground v.1.15,2013-03-06 01:15:00,
2013-03-05 19:20:00,44.3,27.8,29.85,NW,322,6.0,28.0,52,0.00,,,0.40,Wunderground v.1.15,2013-03-06 01:20:00,
2013-03-05 19:30:00,44.1,28.0,29.85,WNW,285,7.0,28.0,53,0.00,,,0.40,Wunderground v.1.15,2013-03-06 01:30:00,
2013-03-05 19:40:00,44.0,27.5,29.86,WNW,283,8.0,8.0,52,0.00,,,0.40,Wunderground v.1.15,2013-03-06 01:40:00,
2013-03-05 19:45:00,43.9,27.4,29.86,West,267,7.0,28.0,52,0.00,,,0.40,Wunderground v.1.15,2013-03-06 01:45:00,
2013-03-05 19:50:00,43.8,27.3,29.86,West,279,8.0,8.0,52,0.00,,,0.40,Wunderground v.1.15,2013-03-06 01:50:00,
2013-03-05 19:55:00,43.7,27.2,29.86,WNW,284,9.0,18.0,52,0.00,,,0.40,Wunderground v.1.15,2013-03-06 01:55:00,
2013-03-05 20:00:00,43.7,27.2,29.86,WNW,290,8.0,28.0,52,0.00,,,0.40,Wunderground v.1.15,2013-03-06 02:00:00,
2013-03-05 20:05:00,43.6,26.6,29.86,WNW,298,9.0,28.0,51,0.00,,,0.40,Wunderground v.1.15,2013-03-06 02:05:00,
2013-03-05 20:10:00,43.6,26.6,29.87,NW,308,10.0,28.0,51,0.00,,,0.40,Wunderground v.1.15,2013-03-06 02:10:00,
2013-03-05 20:15:00,43.5,27.0,29.87,WNW,302,9.0,28.0,52,0.00,,,0.40,Wunderground v.1.15,2013-03-06 02:15:00,
2013-03-05 20:20:00,43.4,26.9,29.87,West,277,10.0,28.0,52,0.00,,,0.40,Wunderground v.1.15,2013-03-06 02:20:00,
2013-03-05 20:25:00,43.3,26.8,29.87,WNW,284,11.0,28.0,52,0.00,,,0.40,Wunderground v.1.15,2013-03-06 02:25:00,
2013-03-05 20:30:00,43.2,26.7,29.87,NNW,346,11.0,28.0,52,0.00,,,0.40,Wunderground v.1.15,2013-03-06 02:30:00,
2013-03-05 20:40:00,42.9,26.9,29.88,NW,309,9.0,28.0,53,0.00,,,0.40,Wunderground v.1.15,2013-03-06 02:40:00,
2013-03-05 20:45:00,42.8,27.3,29.88,NW,322,9.0,28.0,54,0.00,,,0.40,Wunderground v.1.15,2013-03-06 02:45:00,
2013-03-05 20:50:00,42.6,27.1,29.88,NNW,329,9.0,28.0,54,0.00,,,0.40,Wunderground v.1.15,2013-03-06 02:50:00,
2013-03-05 20:55:00,42.5,27.5,29.89,NW,304,7.0,28.0,55,0.00,,,0.40,Wunderground v.1.15,2013-03-06 02:55:00,
2013-03-05 21:00:00,42.4,27.4,29.89,NNW,329,7.0,7.0,55,0.00,,,0.40,Wunderground v.1.15,2013-03-06 03:00:00,
2013-03-05 21:05:00,42.3,27.3,29.89,NW,309,9.0,9.0,55,0.00,,,0.40,Wunderground v.1.15,2013-03-06 03:05:00,
2013-03-05 21:15:00,42.2,27.6,29.90,NNW,333,6.0,28.0,56,0.00,,,0.40,Wunderground v.1.15,2013-03-06 03:15:00,
2013-03-05 21:20:00,42.0,27.9,29.90,NNW,331,7.0,7.0,57,0.00,,,0.40,Wunderground v.1.15,2013-03-06 03:20:00,
2013-03-05 21:25:00,41.9,27.8,29.91,NNW,344,7.0,28.0,57,0.00,,,0.40,Wunderground v.1.15,2013-03-06 03:25:00,
2013-03-05 21:30:00,41.7,27.6,29.91,WNW,292,8.0,28.0,57,0.00,,,0.40,Wunderground v.1.15,2013-03-06 03:30:00,
2013-03-05 21:35:00,41.6,27.1,29.91,NNE,19,8.0,28.0,56,0.00,,,0.40,Wunderground v.1.15,2013-03-06 03:35:00,
2013-03-05 21:45:00,41.3,26.8,29.92,NNE,33,9.0,10.0,56,0.00,,,0.40,Wunderground v.1.15,2013-03-06 03:45:00,
2013-03-05 21:50:00,41.3,26.3,29.92,West,275,9.0,9.0,55,0.00,,,0.40,Wunderground v.1.15,2013-03-06 03:50:00,
2013-03-05 21:55:00,41.2,26.2,29.92,West,281,9.0,10.0,55,0.00,,,0.40,Wunderground v.1.15,2013-03-06 03:55:00,
2013-03-05 22:00:00,41.1,26.6,29.92,WNW,284,8.0,8.0,56,0.00,,,0.40,Wunderground v.1.15,2013-03-06 04:00:00,
2013-03-05 22:05:00,40.9,26.4,29.92,NNW,327,8.0,28.0,56,0.00,,,0.40,Wunderground v.1.15,2013-03-06 04:05:00,
2013-03-05 22:10:00,40.7,26.6,29.93,North,351,8.0,8.0,57,0.00,,,0.40,Wunderground v.1.15,2013-03-06 04:10:00,
2013-03-05 22:15:00,40.6,26.5,29.93,WNW,296,8.0,12.0,57,0.00,,,0.40,Wunderground v.1.15,2013-03-06 04:15:00,
2013-03-05 22:20:00,40.4,26.8,29.93,WNW,302,8.0,8.0,58,0.00,,,0.40,Wunderground v.1.15,2013-03-06 04:20:00,
2013-03-05 22:25:00,40.3,26.7,29.93,WNW,298,7.0,9.0,58,0.00,,,0.40,Wunderground v.1.15,2013-03-06 04:25:00,
2013-03-05 22:30:00,40.2,27.0,29.93,WNW,302,7.0,7.0,59,0.00,,,0.40,Wunderground v.1.15,2013-03-06 04:30:00,
2013-03-05 22:40:00,40.1,26.5,29.93,WSW,257,10.0,10.0,58,0.00,,,0.40,Wunderground v.1.15,2013-03-06 04:40:00,
2013-03-05 22:45:00,40.1,26.5,29.93,NW,314,9.0,28.0,58,0.00,,,0.40,Wunderground v.1.15,2013-03-06 04:45:00,
2013-03-05 22:50:00,39.9,26.3,29.93,WNW,300,10.0,28.0,58,0.00,,,0.40,Wunderground v.1.15,2013-03-06 04:50:00,
2013-03-05 22:55:00,39.8,26.6,29.93,North,355,11.0,28.0,59,0.00,,,0.40,Wunderground v.1.15,2013-03-06 04:55:00,
2013-03-05 23:00:00,39.7,26.5,29.93,WNW,301,9.0,28.0,59,0.00,,,0.40,Wunderground v.1.15,2013-03-06 05:00:00,
2013-03-05 23:05:00,39.6,26.0,29.93,NW,317,8.0,28.0,58,0.00,,,0.40,Wunderground v.1.15,2013-03-06 05:05:00,
2013-03-05 23:10:00,39.4,25.8,29.93,WNW,292,9.0,28.0,58,0.00,,,0.40,Wunderground v.1.15,2013-03-06 05:10:00,
2013-03-05 23:15:00,39.3,25.7,29.93,WNW,286,8.0,28.0,58,0.00,,,0.40,Wunderground v.1.15,2013-03-06 05:15:00,
2013-03-05 23:20:00,39.2,25.6,29.93,WNW,299,8.0,8.0,58,0.00,,,0.40,Wunderground v.1.15,2013-03-06 05:20:00,
2013-03-05 23:30:00,39.2,25.2,29.93,WNW,298,10.0,10.0,57,0.00,,,0.40,Wunderground v.1.15,2013-03-06 05:30:00,
2013-03-05 23:40:00,39.0,25.0,29.93,WNW,288,9.0,28.0,57,0.00,,,0.40,Wunderground v.1.15,2013-03-06 05:40:00,
2013-03-05 23:45:00,38.9,24.9,29.93,NW,315,9.0,28.0,57,0.00,,,0.40,Wunderground v.1.15,2013-03-06 05:45:00,
2013-03-05 23:50:00,38.7,24.8,29.93,WNW,298,8.0,28.0,57,0.00,,,0.40,Wunderground v.1.15,2013-03-06 05:50:00,
2013-03-05 23:55:00,38.6,25.1,29.93,NW,306,8.0,28.0,58,0.00,,,0.40,Wunderground v.1.15,2013-03-06 05:55:00,